GW3793 Weather Reports


Display with metric or nautical units.
time (UTC)temp
F
wind
direction
speed
MPH
gust
MPH
rain 1hr
in
rain 24hr
in
rain mn
in
humidity
%
barometer
mb
20260902220903 66 172 6.0 17.0 0.00 0.01 0.00 50 1004.4
20260902220003 66 160 4.0 11.0 0.00 0.01 0.00 50 1004.3
20260902215403 67 160 5.0 14.0 0.00 0.01 0.00 48 1004.3
20260902214503 69 160 5.0 15.0 0.00 0.01 0.00 47 1004.8
20260902213603 69 168 6.0 16.0 0.00 0.01 0.00 47 1004.8
20260902212704 68 165 6.0 16.0 0.00 0.01 0.00 51 1004.9
20260902211803 66 171 5.0 16.0 0.00 0.01 0.00 52 1005.1
20260902211117 67 174 5.0 10.0 0.00 0.01 0.00 49 1005.2
20260902210005 67 167 5.0 15.0 0.00 0.01 0.00 49 1004.9
20260902205403 66 167 5.0 13.0 0.00 0.01 0.00 52 1005.1
20260902204503 65 163 5.0 10.0 0.00 0.01 0.00 53 1005.0
20260902203603 66 168 5.0 19.0 0.00 0.01 0.00 51 1005.3
20260902202918 66 170 6.0 19.0 0.00 0.01 0.00 52 1005.2
20260902201803 65 171 6.0 17.0 0.00 0.01 0.00 55 1005.4
20260902200903 64 171 6.0 15.0 0.00 0.01 0.00 53 1005.1
20260902200003 63 164 5.0 16.0 0.00 0.01 0.00 55 1005.4
20260902195403 63 168 6.0 16.0 0.00 0.01 0.00 57 1005.1
20260902194503 63 171 5.0 12.0 0.00 0.01 0.00 56 1005.4
20260902193603 64 168 5.0 11.0 0.00 0.01 0.00 56 1005.3
20260902192703 63 172 5.0 17.0 0.00 0.01 0.00 60 1005.6
20260902191803 63 169 5.0 13.0 0.00 0.01 0.00 57 1005.4
20260902190903 62 168 5.0 12.0 0.00 0.01 0.00 59 1005.4
20260902190003 62 168 5.0 13.0 0.00 0.01 0.00 61 1005.4
20260902185403 62 173 6.0 13.0 0.00 0.01 0.00 57 1005.4
20260902184503 62 166 5.0 15.0 0.00 0.01 0.00 60 1005.7
20260902183603 62 167 4.0 11.0 0.00 0.01 0.00 56 1005.7
20260902182917 62 170 4.0 11.0 0.00 0.01 0.00 59 1005.6
20260902181803 62 173 4.0 7.0 0.00 0.01 0.00 59 1005.7
20260902181118 62 175 4.0 10.0 0.00 0.01 0.00 59 1005.8
20260902180005 62 171 5.0 11.0 0.00 0.01 0.00 58 1005.9
20260902175403 62 173 4.0 9.0 0.00 0.01 0.00 59 1005.8
20260902174718 62 170 4.0 9.0 0.00 0.01 0.00 59 1005.8
20260902173605 61 171 4.0 9.0 0.00 0.01 0.00 60 1005.8
20260902172703 61 169 4.0 10.0 0.00 0.01 0.00 60 1006.0
20260902171803 62 171 5.0 13.0 0.00 0.01 0.00 58 1005.7
20260902170904 61 166 5.0 13.0 0.00 0.01 0.00 62 1005.8
20260902170003 60 171 5.0 9.0 0.00 0.01 0.00 62 1006.0
20260902165403 60 170 5.0 15.0 0.00 0.01 0.00 60 1006.1
20260902164503 61 166 6.0 16.0 0.00 0.01 0.00 60 1005.9
20260902163817 61 166 6.0 14.0 0.00 0.01 0.00 59 1006.2
20260902162703 61 167 6.0 16.0 0.00 0.01 0.00 60 1006.2
20260902161803 62 170 4.0 9.0 0.00 0.01 0.00 61 1005.9
20260902160903 62 169 4.0 11.0 0.00 0.01 0.00 64 1006.0
20260902160218 61 170 4.0 11.0 0.00 0.01 0.00 65 1006.0
20260902155403 60 172 5.0 9.0 0.00 0.01 0.00 66 1006.2
20260902154503 60 172 5.0 13.0 0.00 0.01 0.00 66 1005.7
20260902153603 59 171 5.0 10.0 0.00 0.01 0.00 69 1006.0
20260902152703 58 171 5.0 14.0 0.00 0.01 0.00 68 1005.8
20260902151803 57 168 4.0 13.0 0.00 0.01 0.00 70 1005.9
20260902150903 56 170 5.0 13.0 0.00 0.01 0.00 70 1005.8
20260902150218 56 171 4.0 12.0 0.00 0.01 0.00 71 1005.6
20260902145403 55 167 4.0 9.0 0.00 0.01 0.00 72 1005.9
20260902144503 54 166 4.0 10.0 0.00 0.01 0.00 73 1005.9
20260902143603 54 165 5.0 13.0 0.00 0.01 0.00 75 1005.9
20260902142705 53 166 3.0 9.0 0.00 0.01 0.00 77 1006.0
20260902141803 53 156 3.0 9.0 0.00 0.01 0.00 77 1005.8
20260902141118 53 162 4.0 10.0 0.00 0.01 0.00 76 1006.1
20260902140004 52 157 3.0 11.0 0.00 0.01 0.00 78 1006.1
20260902135404 52 152 3.0 7.0 0.00 0.01 0.00 78 1006.0
20260902134503 52 156 2.0 7.0 0.00 0.01 0.00 79 1005.9
20260902133603 52 159 2.0 4.0 0.00 0.01 0.00 79 1006.2
20260902132705 52 154 2.0 4.0 0.00 0.01 0.00 78 1006.1
20260902132019 52 155 2.0 4.0 0.00 0.01 0.00 78 1006.1
20260902130903 52 165 3.0 7.0 0.00 0.01 0.00 78 1006.0
20260902130004 52 163 2.0 6.0 0.00 0.01 0.00 79 1006.5
20260902125403 52 159 2.0 6.0 0.00 0.01 0.00 79 1006.3
20260902124504 52 155 2.0 9.0 0.00 0.01 0.00 79 1006.2
20260902123605 52 141 3.0 8.0 0.00 0.01 0.00 79 1006.3
20260902122919 52 141 3.0 8.0 0.00 0.01 0.00 80 1006.3
20260902121804 52 149 3.0 6.0 0.00 0.01 0.00 80 1006.5
20260902120903 52 143 2.0 7.0 0.00 0.01 0.00 80 1006.3
20260902120004 52 147 1.0 5.0 0.00 0.01 0.00 79 1006.6
20260902115403 52 135 2.0 5.0 0.00 0.01 0.00 79 1006.6
20260902114503 53 130 2.0 4.0 0.00 0.01 0.00 79 1006.5
20260902113604 53 126 2.0 7.0 0.00 0.01 0.00 78 1006.7
20260902112703 53 138 2.0 8.0 0.00 0.01 0.00 78 1006.6
20260902112018 54 145 3.0 8.0 0.00 0.01 0.00 77 1006.7
20260902110903 54 151 2.0 8.0 0.00 0.01 0.00 76 1006.6
20260902110005 54 161 3.0 8.0 0.00 0.01 0.00 76 1006.6
20260902105618 54 163 3.0 8.0 0.00 0.01 0.00 76 1006.7
20260902104717 54 163 3.0 9.0 0.00 0.01 0.00 74 1006.6
20260902103604 54 169 4.0 8.0 0.00 0.01 0.00 74 1007.0
20260902102703 54 163 4.0 13.0 0.00 0.01 0.00 75 1006.8
20260902101803 54 164 4.0 7.0 0.00 0.01 0.00 74 1006.8
20260902101117 54 170 3.0 6.0 0.00 0.01 0.00 74 1006.7
20260902100003 53 170 3.0 6.0 0.00 0.01 0.00 77 1007.0
20260902095403 53 171 2.0 6.0 0.00 0.01 0.00 78 1006.6
20260902094504 53 175 1.0 4.0 0.00 0.01 0.00 78 1006.9
20260902093603 53 177 1.0 4.0 0.00 0.01 0.00 78 1007.0
20260902092703 54 89 1.0 4.0 0.00 0.01 0.00 78 1006.9
20260902091803 54 18 1.0 2.0 0.00 0.01 0.00 77 1006.9
20260902091118 54 156 0.0 2.0 0.00 0.01 0.00 77 1006.8
20260902090004 56 170 1.0 3.0 0.00 0.01 0.00 74 1006.8
20260902085405 56 162 2.0 5.0 0.00 0.01 0.00 74 1006.6
20260902084503 56 142 2.0 8.0 0.00 0.01 0.00 74 1006.7
20260902083603 56 162 3.0 10.0 0.00 0.01 0.00 74 1006.8
20260902082703 56 164 4.0 11.0 0.00 0.01 0.00 75 1006.7
20260902082016 56 166 4.0 9.0 0.00 0.01 0.00 75 1006.9
20260902080903 56 170 4.0 12.0 0.00 0.01 0.00 75 1006.7
20260902080004 56 174 4.0 13.0 0.00 0.01 0.00 74 1006.5
20260902075403 56 172 5.0 13.0 0.00 0.01 0.00 75 1006.7
20260902074505 56 152 3.0 11.0 0.00 0.01 0.00 75 1006.6
20260902073603 56 155 3.0 9.0 0.00 0.01 0.00 73 1006.9
20260902072703 56 158 4.0 12.0 0.00 0.01 0.00 72 1006.9
20260902071803 56 167 5.0 17.0 0.00 0.01 0.00 73 1006.7
20260902070903 56 168 5.0 13.0 0.00 0.01 0.00 74 1006.8
20260902070005 55 166 5.0 11.0 0.00 0.01 0.00 78 1006.9
20260902065403 55 170 4.0 9.0 0.00 0.01 0.01 78 1006.7
20260902064503 55 170 4.0 8.0 0.00 0.01 0.01 78 1006.6
20260902063603 56 167 4.0 8.0 0.00 0.01 0.01 79 1006.3
20260902062703 56 168 4.0 9.0 0.00 0.01 0.01 79 1006.6
20260902061803 56 168 5.0 13.0 0.00 0.01 0.01 79 1006.6
20260902060903 57 167 6.0 17.0 0.00 0.01 0.01 77 1006.7
20260902060219 58 165 8.0 22.0 0.00 0.01 0.01 73 1006.5
20260902055403 58 166 6.0 15.0 0.00 0.01 0.01 69 1006.6
20260902054503 59 170 5.0 11.0 0.00 0.01 0.01 70 1007.0
20260902053603 59 172 6.0 20.0 0.00 0.01 0.01 68 1006.1
20260902052703 60 172 7.0 22.0 0.00 0.01 0.01 63 1005.8
20260902051803 60 170 7.0 17.0 0.00 0.01 0.01 61 1006.1
20260902051117 60 171 6.0 21.0 0.00 0.01 0.01 66 1006.0
20260902050005 60 165 5.0 11.0 0.00 0.01 0.01 66 1006.0
20260902045403 60 165 5.0 13.0 0.00 0.01 0.01 65 1005.7
20260902044503 60 170 3.0 7.0 0.00 0.01 0.01 66 1005.8
20260902043603 61 168 3.0 6.0 0.00 0.01 0.01 66 1005.6
20260902042703 61 174 3.0 6.0 0.00 0.01 0.01 66 1005.7
20260902041804 61 169 2.0 7.0 0.00 0.01 0.01 66 1005.6
20260902040903 61 155 2.0 7.0 0.00 0.01 0.01 64 1005.4
20260902040003 61 168 3.0 6.0 0.00 0.01 0.01 63 1005.8
20260902035403 61 169 4.0 11.0 0.00 0.01 0.01 63 1005.9
20260902034717 61 167 4.0 11.0 0.01 0.01 0.01 63 1005.9
20260902033605 61 168 3.0 5.0 0.01 0.01 0.01 63 1005.8
20260902032703 61 168 3.0 9.0 0.01 0.01 0.01 63 1005.6
20260902031805 61 167 4.0 12.0 0.01 0.01 0.01 62 1005.4
20260902030905 62 169 5.0 16.0 0.01 0.01 0.01 64 1005.7
20260902030218 62 165 6.0 16.0 0.01 0.01 0.01 64 1005.4
20260902025617 63 167 6.0 12.0 0.00 0.00 0.00 67 1006.1
20260902024503 64 169 5.0 15.0 0.00 0.00 0.00 63 1005.8
20260902023603 65 166 6.0 18.0 0.00 0.00 0.00 56 1005.6
20260902022703 65 174 6.0 15.0 0.00 0.00 0.00 54 1005.4
20260902021803 65 170 6.0 15.0 0.00 0.00 0.00 56 1005.3
20260902020903 66 171 4.0 9.0 0.00 0.00 0.00 55 1005.3
20260902020003 67 172 4.0 8.0 0.00 0.00 0.00 51 1005.4
20260902015403 67 171 4.0 10.0 0.00 0.00 0.00 51 1005.2
20260902014503 67 168 4.0 15.0 0.00 0.00 0.00 50 1005.1
20260902013604 67 175 5.0 12.0 0.00 0.00 0.00 50 1005.2
20260902012705 68 171 5.0 13.0 0.00 0.00 0.00 49 1005.1
20260902011803 69 167 7.0 19.0 0.00 0.00 0.00 47 1005.3
20260902010903 70 167 7.0 21.0 0.00 0.00 0.00 44 1005.3
20260902010003 71 172 6.0 21.0 0.00 0.00 0.00 41 1005.1
20260902005403 72 168 4.0 12.0 0.00 0.00 0.00 39 1005.0
20260902004503 72 193 2.0 9.0 0.00 0.00 0.00 37 1004.9
20260902003603 73 182 3.0 14.0 0.00 0.00 0.00 41 1005.0
20260902002703 73 188 3.0 14.0 0.00 0.00 0.00 36 1005.1
20260902001803 73 182 3.0 6.0 0.00 0.00 0.00 43 1004.8
20260902000903 73 177 3.0 9.0 0.00 0.00 0.00 41 1005.0
20260902000003 73 177 4.0 11.0 0.00 0.00 0.00 43 1005.2
20260901235403 72 177 5.0 12.0 0.00 0.00 0.00 42 1005.1
20260901234503 72 168 4.0 9.0 0.00 0.00 0.00 41 1005.3
20260901233816 72 171 3.0 9.0 0.00 0.00 0.00 42 1005.3
20260901232703 72 181 4.0 13.0 0.00 0.00 0.00 43 1005.4
20260901231803 72 176 4.0 10.0 0.00 0.00 0.00 41 1005.6
20260901230903 73 178 5.0 14.0 0.00 0.00 0.00 41 1005.6
20260901230004 74 168 5.0 14.0 0.00 0.00 0.00 41 1005.9
20260901225404 74 171 6.0 17.0 0.00 0.00 0.00 40 1005.6
20260901224717 74 170 6.0 15.0 0.00 0.00 0.00 40 1005.9
20260901223603 74 171 6.0 23.0 0.00 0.00 0.00 39 1005.9
20260901222706 75 175 6.0 17.0 0.00 0.00 0.00 38 1006.1
20260901221803 76 171 6.0 15.0 0.00 0.00 0.00 39 1006.0